| time (UTC) | temp C | wind direction | speed KPH | gust KPH | rain 1hr cm | rain 24hr cm | rain mn cm | humidity % | barometer mb |
| 20260504080844 | 19 | 271 | 4.8 | 11.3 | 0.00 | 1.55 | 0.20 | 40 | 1003.6 |
| 20260504045345 | 18 | 261 | 12.9 | 27.4 | 0.00 | 2.44 | 0.20 | 44 | 1002.4 |
| 20260504043845 | 18 | 259 | 14.5 | 27.4 | 0.00 | 2.49 | 0.20 | 45 | 1002.6 |
| 20260504042344 | 18 | 241 | 14.5 | 29.0 | 0.00 | 2.49 | 0.20 | 44 | 1002.5 |
| 20260504040845 | 18 | 255 | 14.5 | 30.6 | 0.00 | 2.49 | 0.20 | 45 | 1002.2 |
| 20260504035345 | 18 | 272 | 16.1 | 33.8 | 0.00 | 2.49 | 0.20 | 46 | 1002.2 |
| 20260504033845 | 18 | 252 | 19.3 | 33.8 | 0.05 | 2.49 | 0.20 | 47 | 1002.2 |
| 20260504032345 | 18 | 267 | 17.7 | 37.0 | 0.05 | 2.49 | 0.20 | 44 | 1002.0 |
| 20260504030845 | 18 | 270 | 19.3 | 32.2 | 0.05 | 2.49 | 0.20 | 47 | 1001.9 |
| 20260504025345 | 18 | 259 | 17.7 | 30.6 | 0.05 | 2.49 | 0.20 | 48 | 1001.8 |
| 20260504023845 | 18 | 247 | 14.5 | 24.1 | 0.00 | 2.41 | 0.13 | 47 | 1002.1 |
| 20260504022345 | 18 | 241 | 11.3 | 19.3 | 0.00 | 2.41 | 0.13 | 48 | 1002.0 |
| 20260504020844 | 18 | 261 | 12.9 | 22.5 | 0.00 | 2.41 | 0.13 | 49 | 1002.0 |
| 20260504015344 | 17 | 256 | 9.7 | 22.5 | 0.00 | 2.41 | 0.13 | 48 | 1002.3 |
| 20260504013845 | 18 | 266 | 11.3 | 19.3 | 0.00 | 2.41 | 0.13 | 47 | 1001.9 |
| 20260504012345 | 18 | 270 | 14.5 | 20.9 | 0.00 | 2.41 | 0.13 | 46 | 1001.7 |
| 20260504010845 | 18 | 265 | 16.1 | 29.0 | 0.00 | 2.41 | 0.13 | 44 | 1001.8 |
| 20260504005345 | 17 | 291 | 17.7 | 30.6 | 0.13 | 2.41 | 0.13 | 47 | 1001.9 |
| 20260504003845 | 17 | 268 | 16.1 | 30.6 | 0.13 | 2.41 | 0.13 | 50 | 1001.3 |
| 20260504002345 | 17 | 278 | 17.7 | 27.4 | 0.13 | 2.41 | 0.13 | 60 | 1000.8 |
| 20260504000844 | 17 | 266 | 20.9 | 37.0 | 0.13 | 2.41 | 0.13 | 60 | 1000.8 |
| 20260503235344 | 17 | 276 | 14.5 | 27.4 | 0.00 | 2.26 | 0.00 | 55 | 1000.3 |
| 20260503233844 | 17 | 252 | 12.9 | 24.1 | 0.00 | 2.26 | 0.00 | 58 | 1000.1 |
| 20260503232344 | 17 | 258 | 12.9 | 24.1 | 0.00 | 2.26 | 0.00 | 60 | 999.8 |
| 20260503230844 | 17 | 264 | 11.3 | 24.1 | 0.00 | 2.26 | 0.00 | 59 | 999.8 |
| 20260503225344 | 17 | 263 | 8.0 | 19.3 | 0.00 | 2.26 | 0.00 | 60 | 999.4 |
| 20260503223846 | 17 | 270 | 8.0 | 14.5 | 0.00 | 2.26 | 0.00 | 61 | 999.4 |
| 20260503222345 | 17 | 252 | 6.4 | 14.5 | 0.00 | 2.26 | 0.00 | 62 | 999.5 |
| 20260503220844 | 17 | 228 | 4.8 | 9.7 | 0.00 | 2.26 | 0.00 | 64 | 999.1 |
| 20260503215344 | 16 | 232 | 9.7 | 19.3 | 0.00 | 2.26 | 0.00 | 70 | 999.2 |
| 20260503213844 | 16 | 244 | 9.7 | 17.7 | 0.00 | 2.26 | 0.00 | 70 | 998.4 |
| 20260503212344 | 16 | 270 | 8.0 | 16.1 | 0.00 | 2.26 | 0.00 | 70 | 998.3 |
| 20260503210844 | 16 | 284 | 9.7 | 19.3 | 0.00 | 2.26 | 0.00 | 70 | 998.2 |
| 20260503205344 | 16 | 233 | 9.7 | 19.3 | 0.00 | 2.26 | 0.00 | 70 | 997.9 |
| 20260503203844 | 16 | 243 | 8.0 | 14.5 | 0.00 | 2.26 | 0.00 | 70 | 997.8 |
| 20260503202346 | 16 | 222 | 9.7 | 22.5 | 0.00 | 2.26 | 0.00 | 68 | 997.1 |
| 20260503200846 | 16 | 239 | 9.7 | 22.5 | 0.00 | 2.26 | 0.00 | 68 | 997.2 |
| 20260503195346 | 16 | 258 | 9.7 | 19.3 | 0.00 | 2.26 | 0.00 | 70 | 997.3 |
| 20260503193845 | 16 | 246 | 11.3 | 19.3 | 0.00 | 2.26 | 0.00 | 68 | 997.1 |
| 20260503192345 | 16 | 263 | 11.3 | 24.1 | 0.00 | 2.26 | 0.00 | 68 | 996.9 |
| 20260503190845 | 16 | 210 | 6.4 | 12.9 | 0.00 | 2.26 | 0.00 | 74 | 996.9 |
| 20260503185345 | 16 | 239 | 6.4 | 16.1 | 0.00 | 2.26 | 0.00 | 78 | 996.6 |
| 20260503183845 | 16 | 236 | 6.4 | 14.5 | 0.00 | 2.26 | 0.00 | 76 | 996.7 |
| 20260503182345 | 16 | 223 | 8.0 | 14.5 | 0.00 | 2.26 | 0.00 | 75 | 996.6 |
| 20260503180845 | 16 | 256 | 6.4 | 14.5 | 0.00 | 2.26 | 0.00 | 75 | 996.7 |
| 20260503175345 | 16 | 236 | 8.0 | 14.5 | 0.00 | 2.26 | 0.00 | 74 | 996.6 |
| 20260503173845 | 16 | 248 | 8.0 | 19.3 | 0.00 | 2.26 | 0.00 | 77 | 996.7 |
| 20260503172344 | 16 | 251 | 9.7 | 16.1 | 0.00 | 2.26 | 0.00 | 76 | 996.6 |
| 20260503170844 | 16 | 265 | 9.7 | 17.7 | 0.00 | 2.26 | 0.00 | 76 | 996.2 |
| 20260503150845 | 16 | 212 | 9.7 | 20.9 | 0.00 | 2.26 | 0.00 | 83 | 995.3 |